NAYIF-1 (EO-88)

Last updated on Wed Jul 19 2023 00:03:00 GMT+0000 (Coordinated Universal Time)

1 42017U 17008BX 23198.64389602 .03845235 23435-5 12955-2 0 9997 2 42017 97.1939 272.0619 0014074 261.3029 98.6670 16.25423645358325
UTC large
Height (km)
Speed (km/s)
/
Latitude / Longitude
Inclination (degrees)
Orbital Period (minutes)
Azimuth
Elevation
Range (km)
Doppler Factor

Next 0 passes for location: London (51.5072 / 0.1276)

Sorry there are no passes over London.